{"data":{"norad_id":66542,"intl_designator":"2025-265AC","name":"STARLINK-35833","alt_names":[],"object_type":"PAYLOAD","status":"ACTIVE","operator":null,"country":"US","launch_date":"2025-11-19","launch_site_code":"AFETR","launch_vehicle":null,"mission":null,"orbit_class":"UNKNOWN","rcs_meters":null,"size_class":null,"mass_kg":null,"dimensions":null,"purposes":["comms"],"wikipedia_slug":null,"has_3d_model":false,"image_url":null,"decayed_at":null,"tle_current":{"epoch":"2026-05-24T21:38:08.775744Z","epoch_age_seconds":79694,"freshness":"FRESH","line1":"1 66542U 25265AC  26144.90149046  .00009625  00000+0  35872-3 0  9992","line2":"2 66542  43.0025 207.9991 0002040 291.8589  68.2045 15.27589455 28763","mean_motion":15.27589455,"eccentricity":0.000204,"inclination_deg":43.0025,"raan_deg":207.9991,"arg_perigee_deg":291.8589,"mean_anomaly_deg":68.2045,"bstar":0.00035872,"rev_number":2876,"period_min":94.266165250532,"perigee_km":481.62110832622,"apogee_km":484.42046070231,"semimajor_km":6861.1577845143,"source":"CELESTRAK","updated_at":"2026-05-25T13:38:21.255130Z"}}}